PKNJT WAYY-WAVV

Flight info

Callsign PKNJT
Flight time 1h 2m
Altitude 15000
Route TMK
Aircraft B58T/L-V/N

Departure

Time 2026-05-04 12:40
Airport Mozes Kilangin Airport (WAYY)

Arrival

Time 2026-05-04 13:42
Airport Wamena Airport (WAVV)
Time Latitude Longitude Altitude Speed Heading
2026-05-04 12:36 -4.52592 136.87784 107 ft 0 kts 46°
2026-05-04 12:38 -4.52590 136.87786 107 ft 2 kts 52°
2026-05-04 12:38 -4.52552 136.87783 107 ft 10 kts 338°
2026-05-04 12:38 -4.52464 136.87809 107 ft 19 kts 33°
2026-05-04 12:39 -4.52450 136.87914 105 ft 19 kts 122°
2026-05-04 12:39 -4.52650 136.88226 105 ft 92 kts 123°
2026-05-04 12:39 -4.53070 136.88925 140 ft 137 kts 121°
2026-05-04 12:39 -4.53590 136.89793 385 ft 150 kts 122°
2026-05-04 12:40 -4.54124 136.90675 792 ft 145 kts 124°
2026-05-04 12:40 -4.54759 136.91433 1135 ft 145 kts 143°
2026-05-04 12:40 -4.55600 136.91977 1524 ft 140 kts 158°
2026-05-04 12:40 -4.56498 136.92332 1965 ft 139 kts 165°
2026-05-04 12:41 -4.57456 136.92636 2224 ft 148 kts 163°
2026-05-04 12:41 -4.58419 136.93010 2606 ft 148 kts 155°
2026-05-04 12:41 -4.59242 136.93656 2866 ft 160 kts 123°
2026-05-04 12:41 -4.59439 136.94758 3075 ft 167 kts 73°
2026-05-04 12:42 -4.58668 136.95571 3353 ft 166 kts 29°
2026-05-04 12:42 -4.57694 136.96153 3779 ft 158 kts 31°
2026-05-04 12:42 -4.56750 136.96675 4208 ft 156 kts 23°
2026-05-04 12:42 -4.55927 136.97342 4554 ft 157 kts 67°
2026-05-04 12:43 -4.55983 136.98455 4694 ft 171 kts 107°
2026-05-04 12:43 -4.56381 136.99564 5073 ft 165 kts 111°
2026-05-04 12:43 -4.56764 137.00636 5446 ft 165 kts 107°
2026-05-04 12:43 -4.57019 137.01777 5708 ft 170 kts 96°
2026-05-04 12:44 -4.57129 137.02954 6062 ft 168 kts 97°
2026-05-04 12:44 -4.57318 137.04107 6400 ft 169 kts 99°
2026-05-04 12:44 -4.57546 137.05272 6689 ft 171 kts 102°
2026-05-04 12:44 -4.57763 137.06439 7000 ft 170 kts 98°
2026-05-04 12:45 -4.57832 137.07631 7286 ft 173 kts 87°
2026-05-04 12:45 -4.57588 137.08816 7580 ft 176 kts 67°
2026-05-04 12:45 -4.57131 137.09953 7871 ft 177 kts 79°
2026-05-04 12:45 -4.57087 137.11182 8162 ft 176 kts 92°
2026-05-04 12:46 -4.57145 137.12392 8509 ft 174 kts 91°
2026-05-04 12:46 -4.57110 137.13617 8741 ft 178 kts 84°
2026-05-04 12:46 -4.56983 137.14852 9018 ft 176 kts 85°
2026-05-04 12:46 -4.56935 137.16081 9206 ft 179 kts 93°
2026-05-04 12:47 -4.57088 137.17329 9385 ft 180 kts 101°
2026-05-04 12:47 -4.57353 137.18544 9635 ft 178 kts 103°
2026-05-04 12:47 -4.57703 137.19750 9798 ft 182 kts 109°
2026-05-04 12:47 -4.58109 137.20949 10063 ft 180 kts 108°
2026-05-04 12:48 -4.58436 137.22155 10291 ft 181 kts 101°
2026-05-04 12:48 -4.58541 137.23420 10470 ft 184 kts 86°
2026-05-04 12:48 -4.58255 137.24664 10680 ft 184 kts 65°
2026-05-04 12:48 -4.57723 137.25834 10863 ft 186 kts 75°
2026-05-04 12:49 -4.57617 137.27114 11103 ft 185 kts 95°
2026-05-04 12:49 -4.57892 137.28361 11360 ft 183 kts 109°
2026-05-04 12:49 -4.58424 137.29525 11578 ft 185 kts 119°
2026-05-04 12:49 -4.59169 137.30576 11806 ft 185 kts 131°
2026-05-04 12:50 -4.60078 137.31491 12025 ft 185 kts 137°
2026-05-04 12:50 -4.61047 137.32341 12262 ft 186 kts 138°
2026-05-04 12:50 -4.61998 137.33233 12481 ft 187 kts 133°
2026-05-04 12:50 -4.62804 137.34235 12702 ft 188 kts 122°
2026-05-04 12:51 -4.63339 137.35425 12905 ft 189 kts 103°
2026-05-04 12:51 -4.63396 137.36740 13073 ft 192 kts 78°
2026-05-04 12:51 -4.62801 137.37927 13220 ft 194 kts 45°
2026-05-04 12:51 -4.62028 137.38984 13528 ft 188 kts 73°
2026-05-04 12:52 -4.62100 137.40256 13819 ft 185 kts 115°
2026-05-04 12:52 -4.62811 137.41321 14083 ft 183 kts 113°
2026-05-04 12:52 -4.62898 137.42547 14354 ft 178 kts 72°
2026-05-04 12:52 -4.62448 137.43701 14620 ft 178 kts 65°
2026-05-04 12:53 -4.61907 137.44841 14775 ft 185 kts 63°
2026-05-04 12:53 -4.61316 137.46020 14847 ft 194 kts 63°
2026-05-04 12:53 -4.60684 137.47251 14884 ft 203 kts 62°
2026-05-04 12:53 -4.60019 137.48532 14931 ft 211 kts 62°
2026-05-04 12:54 -4.59328 137.49855 14938 ft 217 kts 62°
2026-05-04 12:54 -4.58620 137.51210 14941 ft 221 kts 62°
2026-05-04 12:54 -4.57900 137.52587 14942 ft 225 kts 62°
2026-05-04 12:54 -4.57170 137.53979 14943 ft 226 kts 62°
2026-05-04 12:55 -4.56650 137.54907 14944 ft 226 kts 58°
2026-05-04 12:55 -4.55805 137.56234 14944 ft 226 kts 57°
2026-05-04 12:55 -4.54940 137.57548 14945 ft 226 kts 56°
2026-05-04 12:55 -4.54076 137.58865 14947 ft 226 kts 57°
2026-05-04 12:56 -4.53225 137.60187 14949 ft 226 kts 57°
2026-05-04 12:56 -4.52563 137.61610 14948 ft 226 kts 71°
2026-05-04 12:56 -4.52170 137.63137 14947 ft 226 kts 78°
2026-05-04 12:56 -4.51922 137.64700 14948 ft 227 kts 82°
2026-05-04 12:57 -4.51742 137.66266 14947 ft 227 kts 85°
2026-05-04 12:57 -4.51682 137.67850 14950 ft 227 kts 89°
2026-05-04 12:57 -4.51699 137.69429 14950 ft 227 kts 90°
2026-05-04 12:57 -4.51728 137.70996 14950 ft 227 kts 90°
2026-05-04 12:58 -4.51733 137.72596 14941 ft 227 kts 89°
2026-05-04 12:58 -4.51718 137.74178 14944 ft 227 kts 88°
2026-05-04 12:58 -4.51705 137.75759 14944 ft 227 kts 89°
2026-05-04 12:58 -4.51706 137.77341 14945 ft 227 kts 89°
2026-05-04 12:59 -4.51713 137.78921 14979 ft 227 kts 90°
2026-05-04 12:59 -4.51719 137.80504 14977 ft 227 kts 89°
2026-05-04 12:59 -4.51720 137.82089 14977 ft 227 kts 89°
2026-05-04 12:59 -4.51714 137.83670 14978 ft 227 kts 89°
2026-05-04 13:00 -4.51706 137.85251 14977 ft 227 kts 89°
2026-05-04 13:00 -4.51696 137.86828 14978 ft 227 kts 89°
2026-05-04 13:00 -4.51686 137.88412 14978 ft 227 kts 89°
2026-05-04 13:00 -4.51675 137.89990 14976 ft 227 kts 88°
2026-05-04 13:01 -4.51664 137.91572 14976 ft 227 kts 89°
2026-05-04 13:01 -4.51651 137.93158 14977 ft 227 kts 89°
2026-05-04 13:01 -4.51637 137.94719 14974 ft 227 kts 88°
2026-05-04 13:01 -4.51623 137.96302 14974 ft 227 kts 88°
2026-05-04 13:02 -4.51608 137.97905 14972 ft 227 kts 88°
2026-05-04 13:02 -4.51592 137.99467 14972 ft 227 kts 89°
2026-05-04 13:02 -4.51575 138.01050 14973 ft 227 kts 89°
2026-05-04 13:02 -4.51558 138.02632 14972 ft 227 kts 88°
2026-05-04 13:03 -4.51539 138.04219 14972 ft 227 kts 88°
2026-05-04 13:03 -4.51520 138.05803 14979 ft 227 kts 88°
2026-05-04 13:03 -4.51499 138.07388 14977 ft 227 kts 88°
2026-05-04 13:03 -4.51478 138.08973 14978 ft 227 kts 88°
2026-05-04 13:04 -4.51456 138.10558 14978 ft 227 kts 88°
2026-05-04 13:04 -4.51434 138.12142 14976 ft 227 kts 88°
2026-05-04 13:04 -4.51410 138.13727 14976 ft 227 kts 88°
2026-05-04 13:04 -4.51386 138.15306 14980 ft 227 kts 88°
2026-05-04 13:05 -4.51360 138.16889 14981 ft 227 kts 88°
2026-05-04 13:05 -4.51334 138.18475 14983 ft 227 kts 88°
2026-05-04 13:05 -4.51307 138.20055 14983 ft 227 kts 88°
2026-05-04 13:05 -4.51279 138.21639 14983 ft 227 kts 88°
2026-05-04 13:06 -4.51250 138.23221 14979 ft 227 kts 88°
2026-05-04 13:06 -4.51221 138.24796 14979 ft 226 kts 88°
2026-05-04 13:06 -4.51194 138.26374 14985 ft 226 kts 88°
2026-05-04 13:06 -4.51166 138.27952 14984 ft 226 kts 88°
2026-05-04 13:07 -4.51135 138.29531 14986 ft 227 kts 88°
2026-05-04 13:07 -4.51103 138.31113 14994 ft 227 kts 88°
2026-05-04 13:07 -4.51070 138.32697 14989 ft 227 kts 88°
2026-05-04 13:07 -4.51036 138.34279 14991 ft 227 kts 88°
2026-05-04 13:08 -4.51002 138.35859 14988 ft 227 kts 88°
2026-05-04 13:08 -4.50967 138.37436 14990 ft 226 kts 88°
2026-05-04 13:08 -4.50931 138.39009 14994 ft 226 kts 88°
2026-05-04 13:08 -4.50894 138.40587 15004 ft 226 kts 88°
2026-05-04 13:09 -4.50857 138.42157 15006 ft 226 kts 88°
2026-05-04 13:09 -4.50820 138.43732 15002 ft 226 kts 88°
2026-05-04 13:09 -4.50781 138.45307 15003 ft 226 kts 88°
2026-05-04 13:09 -4.50742 138.46883 15005 ft 226 kts 87°
2026-05-04 13:10 -4.50702 138.48459 15012 ft 226 kts 88°
2026-05-04 13:10 -4.50661 138.50039 15017 ft 227 kts 87°
2026-05-04 13:10 -4.50619 138.51623 15019 ft 228 kts 87°
2026-05-04 13:10 -4.50578 138.53204 15019 ft 226 kts 87°
2026-05-04 13:11 -4.50536 138.54774 15016 ft 225 kts 87°
2026-05-04 13:11 -4.50494 138.56334 15009 ft 223 kts 88°
2026-05-04 13:11 -4.50452 138.57878 15015 ft 221 kts 88°
2026-05-04 13:11 -4.50408 138.59415 15016 ft 220 kts 87°
2026-05-04 13:12 -4.50364 138.60945 15019 ft 219 kts 88°
2026-05-04 13:12 -4.50319 138.62468 15014 ft 218 kts 88°
2026-05-04 13:12 -4.50272 138.63985 15015 ft 217 kts 86°
2026-05-04 13:12 -4.50224 138.65499 15023 ft 217 kts 86°
2026-05-04 13:13 -4.50175 138.67013 15025 ft 218 kts 87°
2026-05-04 13:13 -4.50124 138.68531 15026 ft 218 kts 86°
2026-05-04 13:13 -4.50070 138.70053 15022 ft 218 kts 86°
2026-05-04 13:13 -4.50028 138.71557 15023 ft 219 kts 91°
2026-05-04 13:14 -4.50438 138.73044 15025 ft 220 kts 106°
2026-05-04 13:14 -4.50816 138.74505 15025 ft 218 kts 103°
2026-05-04 13:14 -4.51147 138.75966 15022 ft 213 kts 100°
2026-05-04 13:14 -4.51387 138.77415 15021 ft 209 kts 96°
2026-05-04 13:15 -4.51556 138.78853 15022 ft 207 kts 94°
2026-05-04 13:15 -4.51685 138.80281 15025 ft 205 kts 92°
2026-05-04 13:15 -4.51732 138.81702 15029 ft 204 kts 89°
2026-05-04 13:15 -4.51728 138.83120 15028 ft 203 kts 88°
2026-05-04 13:16 -4.51710 138.84533 15025 ft 202 kts 88°
2026-05-04 13:16 -4.51702 138.85936 15019 ft 201 kts 89°
2026-05-04 13:16 -4.51707 138.87331 15019 ft 200 kts 89°
2026-05-04 13:16 -4.51719 138.88719 15025 ft 199 kts 88°
2026-05-04 13:17 -4.51717 138.90107 15031 ft 199 kts 88°
2026-05-04 13:17 -4.51713 138.91498 15032 ft 200 kts 89°
2026-05-04 13:17 -4.51714 138.92891 15033 ft 201 kts 89°
2026-05-04 13:17 -4.51709 138.94291 15029 ft 201 kts 88°
2026-05-04 13:18 -4.51709 138.95692 15018 ft 200 kts 88°
2026-05-04 13:18 -4.51702 138.97088 15021 ft 199 kts 83°
2026-05-04 13:18 -4.51143 138.98312 15024 ft 195 kts 44°
2026-05-04 13:18 -4.49952 138.98919 15030 ft 195 kts 14°
2026-05-04 13:19 -4.48619 138.99181 15067 ft 196 kts
2026-05-04 13:19 -4.47266 138.99374 15064 ft 194 kts
2026-05-04 13:19 -4.45939 138.99538 15061 ft 190 kts
2026-05-04 13:19 -4.44632 138.99690 15062 ft 187 kts
2026-05-04 13:20 -4.43341 138.99837 15064 ft 186 kts
2026-05-04 13:20 -4.42062 138.99978 15059 ft 184 kts
2026-05-04 13:20 -4.40805 139.00113 15063 ft 178 kts
2026-05-04 13:20 -4.39588 139.00245 15061 ft 174 kts
2026-05-04 13:21 -4.38396 139.00375 15060 ft 171 kts
2026-05-04 13:21 -4.37227 139.00502 15082 ft 167 kts
2026-05-04 13:21 -4.36083 139.00624 15086 ft 164 kts
2026-05-04 13:21 -4.34954 139.00744 15091 ft 162 kts
2026-05-04 13:22 -4.33834 139.00864 15091 ft 162 kts
2026-05-04 13:22 -4.32677 139.00986 15100 ft 176 kts
2026-05-04 13:22 -4.31406 139.01122 15102 ft 190 kts
2026-05-04 13:22 -4.30053 139.01264 15100 ft 200 kts
2026-05-04 13:23 -4.28638 139.01414 15094 ft 208 kts
2026-05-04 13:23 -4.27178 139.01570 15088 ft 213 kts
2026-05-04 13:23 -4.25690 139.01709 15100 ft 217 kts
2026-05-04 13:23 -4.24199 139.01432 15105 ft 220 kts 346°
2026-05-04 13:24 -4.22720 139.01002 15031 ft 222 kts 343°
2026-05-04 13:24 -4.21268 139.00541 14847 ft 216 kts 343°
2026-05-04 13:24 -4.19854 139.00076 14664 ft 212 kts 343°
2026-05-04 13:25 -4.17088 138.99149 14305 ft 207 kts 342°
2026-05-04 13:25 -4.15723 138.98695 14123 ft 206 kts 343°
2026-05-04 13:25 -4.14368 138.98242 13943 ft 204 kts 342°
2026-05-04 13:25 -4.13024 138.97790 13749 ft 203 kts 342°
2026-05-04 13:26 -4.11695 138.97341 13540 ft 200 kts 342°
2026-05-04 13:26 -4.10418 138.96909 13280 ft 187 kts 342°
2026-05-04 13:26 -4.09211 138.96504 12972 ft 179 kts 342°
2026-05-04 13:26 -4.08051 138.96114 12660 ft 174 kts 342°
2026-05-04 13:27 -4.06918 138.95734 12377 ft 170 kts 342°
2026-05-04 13:27 -4.05810 138.95357 12087 ft 167 kts 342°
2026-05-04 13:27 -4.04714 138.94989 11800 ft 165 kts 342°
2026-05-04 13:27 -4.03625 138.94625 11515 ft 164 kts 342°
2026-05-04 13:28 -4.02542 138.94266 11208 ft 164 kts 342°
2026-05-04 13:28 -4.01461 138.93898 10926 ft 164 kts 342°
2026-05-04 13:28 -4.00382 138.93529 10642 ft 164 kts 342°
2026-05-04 13:28 -3.99667 138.93280 10464 ft 164 kts 342°
2026-05-04 13:29 -3.98251 138.92790 10227 ft 156 kts 341°
2026-05-04 13:29 -3.97259 138.92446 10149 ft 146 kts 342°
2026-05-04 13:29 -3.96334 138.92125 10109 ft 136 kts 342°
2026-05-04 13:29 -3.95472 138.91816 10089 ft 127 kts 343°
2026-05-04 13:30 -3.94670 138.91531 10075 ft 118 kts 342°
2026-05-04 13:30 -3.93929 138.91263 10079 ft 109 kts 342°
2026-05-04 13:30 -3.93243 138.91016 10058 ft 99 kts 319°
2026-05-04 13:30 -3.92815 138.90559 6429 ft 270 kts 278°
2026-05-04 13:31 -3.92328 138.88756 6268 ft 252 kts 290°
2026-05-04 13:31 -3.91931 138.87271 6745 ft 202 kts 281°
2026-05-04 13:31 -3.91783 138.85909 6826 ft 189 kts 275°
2026-05-04 13:31 -3.91599 138.84623 6840 ft 185 kts 295°
2026-05-04 13:32 -3.90802 138.83570 6472 ft 204 kts 322°
2026-05-04 13:32 -3.89732 138.82650 6441 ft 183 kts 316°
2026-05-04 13:32 -3.88997 138.81785 7025 ft 160 kts 308°
2026-05-04 13:32 -3.88499 138.80745 7012 ft 172 kts 279°
2026-05-04 13:33 -3.88379 138.79563 7201 ft 169 kts 278°
2026-05-04 13:33 -3.88227 138.78390 7393 ft 171 kts 278°
2026-05-04 13:33 -3.88118 138.77205 7577 ft 171 kts 274°
2026-05-04 13:33 -3.88132 138.76006 7771 ft 172 kts 265°
2026-05-04 13:34 -3.88356 138.74827 7956 ft 174 kts 253°
2026-05-04 13:34 -3.88883 138.73727 8124 ft 178 kts 236°
2026-05-04 13:34 -3.89760 138.72867 8335 ft 176 kts 212°
2026-05-04 13:34 -3.90919 138.72469 8485 ft 181 kts 182°
2026-05-04 13:35 -3.92074 138.72957 8339 ft 194 kts 127°
2026-05-04 13:35 -3.92594 138.74887 8543 ft 162 kts 84°
2026-05-04 13:35 -3.92519 138.76518 8466 ft 179 kts 88°
2026-05-04 13:36 -3.92507 138.77326 8646 ft 173 kts 88°
2026-05-04 13:36 -3.92471 138.78516 8840 ft 172 kts 86°
2026-05-04 13:36 -3.92374 138.79730 8909 ft 177 kts 83°
2026-05-04 13:36 -3.92158 138.80930 9089 ft 174 kts 75°
2026-05-04 13:37 -3.91802 138.82093 9145 ft 180 kts 81°
2026-05-04 13:37 -3.92029 138.83358 9027 ft 191 kts 119°
2026-05-04 13:37 -3.92922 138.84285 9211 ft 185 kts 140°
2026-05-04 13:37 -3.93913 138.85074 9279 ft 180 kts 141°
2026-05-04 13:38 -3.94898 138.85839 9287 ft 179 kts 141°
2026-05-04 13:38 -3.95865 138.86627 9277 ft 179 kts 138°
2026-05-04 13:38 -3.96772 138.87475 9306 ft 177 kts 133°
2026-05-04 13:38 -3.97560 138.88405 9331 ft 176 kts 126°
2026-05-04 13:39 -3.98203 138.89459 9276 ft 178 kts 115°
2026-05-04 13:39 -3.98623 138.90615 9297 ft 176 kts 103°
2026-05-04 13:39 -3.98750 138.91844 9243 ft 179 kts 88°
2026-05-04 13:39 -3.98646 138.93074 9243 ft 178 kts 92°
2026-05-04 13:40 -3.99055 138.94237 9033 ft 188 kts 132°
2026-05-04 13:40 -4.00222 138.94879 8814 ft 191 kts 159°
2026-05-04 13:40 -4.01497 138.95115 8793 ft 181 kts 172°
2026-05-04 13:40 -4.02734 138.95222 8374 ft 180 kts 174°
2026-05-04 13:41 -4.04001 138.95227 7778 ft 182 kts 185°
2026-05-04 13:41 -4.05205 138.94986 7244 ft 173 kts 199°
2026-05-04 13:41 -4.06275 138.94405 6315 ft 176 kts 207°
2026-05-04 13:42 -4.08201 138.94434 5553 ft 128 kts 141°
2026-05-04 13:42 -4.08959 138.94852 5403 ft 117 kts 149°
2026-05-04 13:42 -4.09597 138.95178 5395 ft 86 kts 154°
2026-05-04 13:42 -4.09907 138.95294 5388 ft 7 kts 165°
2026-05-04 13:43 -4.09912 138.95296 5388 ft 0 kts 165°